| time (UTC) | temp F | wind direction | speed MPH | gust MPH | rain 1hr in | rain 24hr in | rain mn in | humidity % | barometer mb |
| 20260508224829 | 68 | 174 | 0.0 | 0.0 | 0.00 | 0.00 | 0.00 | 47 | 1013.4 |
| 20260508223346 | 69 | 174 | 0.0 | 0.0 | 0.00 | 0.00 | 0.00 | 45 | 1013.2 |
| 20260508221826 | 69 | 169 | 0.0 | 0.0 | 0.00 | 0.00 | 0.00 | 44 | 1013.6 |
| 20260508220343 | 70 | 151 | 0.0 | 0.0 | 0.00 | 0.00 | 0.00 | 41 | 1013.4 |
| 20260508214845 | 70 | 152 | 0.0 | 4.0 | 0.00 | 0.00 | 0.00 | 41 | 1013.3 |
| 20260508213320 | 71 | 137 | 1.0 | 3.0 | 0.00 | 0.00 | 0.00 | 41 | 1013.3 |
| 20260508211838 | 71 | 147 | 0.0 | 4.0 | 0.00 | 0.00 | 0.00 | 39 | 1013.2 |
| 20260508210318 | 71 | 116 | 0.0 | 1.0 | 0.00 | 0.00 | 0.00 | 38 | 1013.5 |
| 20260508204815 | 70 | 168 | 0.0 | 0.0 | 0.00 | 0.00 | 0.00 | 36 | 1013.5 |
| 20260508203336 | 71 | 166 | 3.0 | 6.0 | 0.00 | 0.00 | 0.00 | 38 | 1013.6 |
| 20260508201814 | 72 | 81 | 0.0 | 0.0 | 0.00 | 0.00 | 0.00 | 38 | 1013.5 |
| 20260508200315 | 71 | 68 | 0.0 | 5.0 | 0.00 | 0.00 | 0.00 | 37 | 1013.8 |
| 20260508194814 | 71 | 30 | 1.0 | 4.0 | 0.00 | 0.00 | 0.00 | 37 | 1013.8 |
| 20260508193314 | 72 | 220 | 0.0 | 6.0 | 0.00 | 0.00 | 0.00 | 36 | 1014.1 |
| 20260508191831 | 71 | 311 | 0.0 | 5.0 | 0.00 | 0.00 | 0.00 | 37 | 1014.4 |
| 20260508190328 | 71 | 147 | 2.0 | 4.0 | 0.00 | 0.00 | 0.00 | 39 | 1014.6 |
| 20260508184829 | 71 | 172 | 0.0 | 3.0 | 0.00 | 0.00 | 0.00 | 36 | 1014.8 |
| 20260508183325 | 71 | 236 | 0.0 | 5.0 | 0.00 | 0.00 | 0.00 | 37 | 1014.9 |
| 20260508181827 | 71 | 210 | 1.0 | 5.0 | 0.00 | 0.00 | 0.00 | 38 | 1015.2 |
| 20260508180323 | 70 | 171 | 1.0 | 5.0 | 0.00 | 0.00 | 0.00 | 40 | 1015.3 |
| 20260508174823 | 71 | 334 | 0.0 | 4.0 | 0.00 | 0.00 | 0.00 | 38 | 1015.2 |
| 20260508173320 | 70 | 53 | 1.0 | 5.0 | 0.00 | 0.00 | 0.00 | 39 | 1015.5 |
| 20260508171822 | 69 | 126 | 2.0 | 7.0 | 0.00 | 0.00 | 0.00 | 38 | 1015.8 |
| 20260508170317 | 69 | 5 | 0.0 | 5.0 | 0.00 | 0.00 | 0.00 | 40 | 1015.9 |
| 20260508164819 | 68 | 83 | 0.0 | 3.0 | 0.00 | 0.01 | 0.00 | 42 | 1016.3 |
| 20260508163317 | 67 | 79 | 0.0 | 5.0 | 0.00 | 0.01 | 0.00 | 45 | 1016.4 |
| 20260508161818 | 68 | 62 | 2.0 | 7.0 | 0.00 | 0.01 | 0.00 | 42 | 1016.6 |
| 20260508160315 | 67 | 45 | 4.0 | 6.0 | 0.00 | 0.01 | 0.00 | 43 | 1016.9 |
| 20260508154852 | 67 | 150 | 1.0 | 6.0 | 0.00 | 0.28 | 0.00 | 43 | 1017.1 |
| 20260508153313 | 67 | 43 | 3.0 | 7.0 | 0.00 | 0.28 | 0.00 | 44 | 1017.1 |
| 20260508151830 | 66 | 58 | 3.0 | 6.0 | 0.00 | 0.28 | 0.00 | 44 | 1016.9 |
| 20260508150313 | 66 | 45 | 3.0 | 9.0 | 0.00 | 0.28 | 0.00 | 46 | 1016.9 |
| 20260508144832 | 66 | 70 | 3.0 | 8.0 | 0.00 | 0.80 | 0.00 | 48 | 1017.0 |
| 20260508143313 | 65 | 10 | 6.0 | 10.0 | 0.00 | 0.80 | 0.00 | 51 | 1016.9 |
| 20260508141831 | 64 | 5 | 4.0 | 9.0 | 0.00 | 0.80 | 0.00 | 52 | 1017.0 |
| 20260508140331 | 65 | 348 | 6.0 | 10.0 | 0.00 | 0.80 | 0.00 | 51 | 1017.0 |
| 20260508134828 | 65 | 76 | 3.0 | 8.0 | 0.00 | 0.82 | 0.00 | 54 | 1017.0 |
| 20260508133325 | 64 | 27 | 4.0 | 8.0 | 0.00 | 0.82 | 0.00 | 55 | 1016.8 |
| 20260508131827 | 63 | 15 | 5.0 | 10.0 | 0.00 | 0.82 | 0.00 | 60 | 1016.6 |
| 20260508130345 | 62 | 22 | 4.0 | 8.0 | 0.00 | 0.82 | 0.00 | 64 | 1016.4 |
| 20260508124824 | 61 | 29 | 2.0 | 7.0 | 0.00 | 0.82 | 0.00 | 70 | 1016.4 |
| 20260508123320 | 60 | 5 | 3.0 | 8.0 | 0.00 | 0.82 | 0.00 | 73 | 1016.3 |
| 20260508121840 | 58 | 360 | 2.0 | 4.0 | 0.00 | 0.82 | 0.00 | 78 | 1016.3 |
| 20260508003318 | 73 | 266 | 0.0 | 2.0 | 0.00 | 1.42 | 1.07 | 69 | 1007.7 |
| 20260508001819 | 74 | 235 | 1.0 | 4.0 | 0.00 | 1.42 | 1.07 | 69 | 1007.5 |
| 20260508000336 | 74 | 200 | 0.0 | 3.0 | 0.00 | 1.42 | 1.07 | 69 | 1007.4 |
| 20260507234831 | 75 | 236 | 0.0 | 8.0 | 0.00 | 1.42 | 1.07 | 68 | 1007.1 |
| 20260507233314 | 75 | 226 | 2.0 | 7.0 | 0.00 | 1.42 | 1.07 | 67 | 1007.1 |
| 20260507231853 | 76 | 247 | 1.0 | 7.0 | 0.00 | 1.42 | 1.07 | 66 | 1006.8 |
| 20260507230313 | 76 | 232 | 0.0 | 6.0 | 0.00 | 1.42 | 1.07 | 66 | 1007.0 |